This is the latest recevied weather packets stored in our database for station/object KE6YLF. If no packets are shown the sender has not sent any weather packets the latest 10 day(s).
| Time | Temp. | Humidity | Pressure | Rain* | Wind** | Luminosity | Snow |
|---|---|---|---|---|---|---|---|
| 1788639794 | 38.89° C | 28% | 1076.7 hPa | 0 mm | - | - | - |
| 1788639489 | 38.33° C | 28% | 1076.7 hPa | 0 mm | - | - | - |
| 1788639185 | 38.89° C | 28% | 1076.9 hPa | 0 mm | - | - | - |
| 1788638879 | 37.22° C | 30% | 1076.9 hPa | 0 mm | - | - | - |
| 1788638575 | 37.22° C | 29% | 1077 hPa | 0 mm | - | - | - |
| 1788638272 | 37.78° C | 29% | 1076.9 hPa | 0 mm | - | - | - |
| 1788637968 | 37.78° C | 29% | 1077.2 hPa | 0 mm | - | - | - |
| 1788637664 | 37.78° C | 29% | 1077.2 hPa | 0 mm | - | - | - |
| 1788637363 | 38.33° C | 29% | 1077.3 hPa | 0 mm | - | - | - |
| 1788637062 | 36.67° C | 30% | 1077.3 hPa | 0 mm | - | - | - |
| 1788636757 | 37.22° C | 30% | 1077.3 hPa | 0 mm | - | - | - |
| 1788636453 | 38.89° C | 29% | 1077.5 hPa | 0 mm | - | - | - |
| 1788636149 | 37.22° C | 30% | 1077.5 hPa | 0 mm | - | - | - |
| 1788635848 | 37.22° C | 30% | 1077.5 hPa | 0 mm | - | - | - |
| 1788635546 | 37.22° C | 30% | 1077.6 hPa | 0 mm | - | - | - |
| 1788635246 | 36.67° C | 30% | 1077.8 hPa | 0 mm | - | - | - |
| 1788634945 | 37.22° C | 30% | 1077.8 hPa | 0 mm | - | - | - |
| 1788634644 | 36.67° C | 30% | 1077.8 hPa | 0 mm | - | - | - |
| 1788634338 | 37.22° C | 30% | 1077.9 hPa | 0 mm | - | - | - |
| 1788634033 | 36.67° C | 30% | 1078 hPa | 0 mm | - | - | - |
| 1788633732 | 36.67° C | 30% | 1078.2 hPa | 0 mm | - | - | - |
| 1788633432 | 37.22° C | 30% | 1078.1 hPa | 0 mm | - | - | - |
| 1788633127 | 36.11° C | 30% | 1078.1 hPa | 0 mm | - | - | - |
| 1788632821 | 36.11° C | 31% | 1078.1 hPa | 0 mm | - | - | - |
| 1788632520 | 35.56° C | 31% | 1078.3 hPa | 0 mm | - | - | - |
* Rain latest hour (hover to see other rain measurements)
** Current wind speed in m/s (hover to see current wind gust speed)